This is the latest recevied weather packets stored in our database for station/object HP1GDP-12. If no packets are shown the sender has not sent any weather packets the latest 10 day(s).
| Time | Temp. | Humidity | Pressure | Rain* | Wind** | Luminosity | Snow |
|---|---|---|---|---|---|---|---|
| 1788144801 | 86° F | 31% | 753.1 mmHg | - | - | - | - |
| 1788144197 | 87° F | 35% | 753 mmHg | - | - | - | - |
| 1788143594 | 87° F | 41% | 753 mmHg | - | - | - | - |
| 1788142385 | 86° F | 38% | 752.8 mmHg | - | - | - | - |
| 1788141781 | 86° F | 38% | 752.8 mmHg | - | - | - | - |
| 1788141176 | 86° F | 33% | 752.9 mmHg | - | - | - | - |
| 1788140572 | 87° F | 33% | 752.8 mmHg | - | - | - | - |
| 1788139968 | 87° F | 34% | 752.7 mmHg | - | - | - | - |
| 1788139364 | 87° F | 36% | 752.5 mmHg | - | - | - | - |
| 1788138760 | 87° F | 37% | 752.4 mmHg | - | - | - | - |
| 1788138156 | 87° F | 37% | 752.3 mmHg | - | - | - | - |
| 1788137552 | 87° F | 35% | 752.2 mmHg | - | - | - | - |
| 1788136948 | 87° F | 34% | 752.1 mmHg | - | - | - | - |
| 1788136344 | 87° F | 34% | 752 mmHg | - | - | - | - |
| 1788135739 | 87° F | 33% | 752.1 mmHg | - | - | - | - |
| 1788135136 | 87° F | 36% | 752.1 mmHg | - | - | - | - |
| 1788134531 | 87° F | 36% | 751.9 mmHg | - | - | - | - |
| 1788133927 | 87° F | 35% | 751.9 mmHg | - | - | - | - |
| 1788133323 | 87° F | 34% | 751.7 mmHg | - | - | - | - |
| 1788132719 | 87° F | 34% | 751.6 mmHg | - | - | - | - |
| 1788132114 | 87° F | 32% | 751.5 mmHg | - | - | - | - |
| 1788131510 | 87° F | 31% | 751.4 mmHg | - | - | - | - |
| 1788130907 | 87° F | 32% | 751.4 mmHg | - | - | - | - |
| 1788130303 | 87° F | 33% | 751.4 mmHg | - | - | - | - |
| 1788129698 | 87° F | 34% | 751.4 mmHg | - | - | - | - |
* Rain since midnight (hover to see other rain measurements)
** Current wind speed in m/s (hover to see current wind gust speed)